OpenBCM V1.07b12 (Linux)

Packet Radio Mailbox

DB0FHN

[JN59NK Nuernberg]

 Login: GUEST





  
CX2SA  > KEPS     13.08.04 05:46l 277 Lines 7262 Bytes #999 (0) @ AMSAT
BID : ORB04225.D
Read: GUEST
Subj: Orbital Elements  04225.MICROS
Path: DB0FHN<DB0RGB<OK0PPL<DB0RES<ON0AR<VE3FJB<YV6BTF<ED1ZAC<CX2SA
Sent: 040813/0438Z @:CX2SA.LAV.URY.SA #:64824 [Minas] FBB7.00e $:ORB04225.D
From: CX2SA@CX2SA.LAV.URY.SA
To  : KEPS@AMSAT


HR AMSAT ORBITAL ELEMENTS FOR THE MICROSATS
FROM WA5QGD FORT WORTH,TX August 12, 2004
SEND SUBSCRIBE/UNSUBSCRIBE TO majordomo@amsat.org ONLY
BID: ORB04225.D
TO ALL RADIO AMATEURS BT

Satellite: UO-14
Catalog number: 20437
Epoch time:      04225.01483819
Element set:     565
Inclination:       98.2085 deg
RA of node:       245.8460 deg
Eccentricity:    0.0011540
Arg of perigee:    38.4013 deg
Mean anomaly:     321.8006 deg
Mean motion:   14.31365785 rev/day
Decay rate:        2.5e-07 rev/day^2
Epoch rev:           75980
Checksum:              285

Satellite: AO-16
Catalog number: 20439
Epoch time:      04225.14563630
Element set:     252
Inclination:       98.2439 deg
RA of node:       260.4566 deg
Eccentricity:    0.0011972
Arg of perigee:    44.3625 deg
Mean anomaly:     315.8525 deg
Mean motion:   14.31622943 rev/day
Decay rate:        1.5e-07 rev/day^2
Epoch rev:           75987
Checksum:              300

Satellite: WO-18
Catalog number: 20441
Epoch time:      04224.67723182
Element set:     437
Inclination:       98.2576 deg
RA of node:       264.0042 deg
Eccentricity:    0.0012713
Arg of perigee:    45.6571 deg
Mean anomaly:     314.5653 deg
Mean motion:   14.31699178 rev/day
Decay rate:        3.3e-07 rev/day^2
Epoch rev:           75986
Checksum:              307

Satellite: LO-19
Catalog number: 20442
Epoch time:      04225.71067526
Element set:     208
Inclination:       98.2714 deg
RA of node:       268.9984 deg
Eccentricity:    0.0012850
Arg of perigee:    42.6299 deg
Mean anomaly:     317.5880 deg
Mean motion:   14.31869260 rev/day
Decay rate:       -1.8e-07 rev/day^2
Epoch rev:           76007
Checksum:              317

Satellite: UO-22
Catalog number: 21575
Epoch time:      04225.64206347
Element set:     176
Inclination:       98.1964 deg
RA of node:       197.4135 deg
Eccentricity:    0.0006386
Arg of perigee:   304.1948 deg
Mean anomaly:      55.8621 deg
Mean motion:   14.39405055 rev/day
Decay rate:        7.0e-07 rev/day^2
Epoch rev:           68611
Checksum:              305

Satellite: KO-23
Catalog number: 22077
Epoch time:      04224.95986653
Element set:    0314
Inclination:      066.0828 deg
RA of node:       074.0478 deg
Eccentricity:    0.0007075
Arg of perigee:   328.9122 deg
Mean anomaly:     031.1475 deg
Mean motion:   12.86424822 rev/day
Decay rate:       -3.7e-07 rev/day^2
Epoch rev:           56381
Checksum:              305

Satellite: AO-27
Catalog number: 22825
Epoch time:      04225.71400252
Element set:     915
Inclination:       98.2422 deg
RA of node:       231.7485 deg
Eccentricity:    0.0009600
Arg of perigee:    96.7158 deg
Mean anomaly:     263.5102 deg
Mean motion:   14.29078791 rev/day
Decay rate:       -6.5e-07 rev/day^2
Epoch rev:           56716
Checksum:              300

Satellite: IO-26
Catalog number: 22826
Epoch time:      04225.02702577
Element set:     601
Inclination:       98.2428 deg
RA of node:       232.3777 deg
Eccentricity:    0.0009947
Arg of perigee:    95.1930 deg
Mean anomaly:     265.0388 deg
Mean motion:   14.29315339 rev/day
Decay rate:        3.9e-07 rev/day^2
Epoch rev:           56712
Checksum:              314

Satellite: KO-25
Catalog number: 22828
Epoch time:      04225.65259264
Element set:     850
Inclination:       98.2357 deg
RA of node:       233.2080 deg
Eccentricity:    0.0010945
Arg of perigee:    75.4961 deg
Mean anomaly:     284.7436 deg
Mean motion:   14.29636008 rev/day
Decay rate:       -3.5e-07 rev/day^2
Epoch rev:           53543
Checksum:              310

Satellite: TO-31
Catalog number: 25396
Epoch time:      04225.80282168
Element set:      57
Inclination:       98.5720 deg
RA of node:       295.6684 deg
Eccentricity:    0.0002653
Arg of perigee:    26.6612 deg
Mean anomaly:     333.4703 deg
Mean motion:   14.23628925 rev/day
Decay rate:       -4.3e-07 rev/day^2
Epoch rev:           31653
Checksum:              301

Satellite: GO-32
Catalog number: 25397
Epoch time:      04225.76000357
Element set:     535
Inclination:       98.5621 deg
RA of node:       293.7020 deg
Eccentricity:    0.0001580
Arg of perigee:    49.5190 deg
Mean anomaly:     310.6126 deg
Mean motion:   14.23047493 rev/day
Decay rate:      -1.08e-06 rev/day^2
Epoch rev:           31646
Checksum:              277

Satellite: UO-36
Catalog number: 25693
Epoch time:      04225.82255860
Element set:     347
Inclination:       64.5584 deg
RA of node:       150.6326 deg
Eccentricity:    0.0048103
Arg of perigee:   251.6412 deg
Mean anomaly:     107.9433 deg
Mean motion:   14.78368716 rev/day
Decay rate:        2.0e-08 rev/day^2
Epoch rev:           28623
Checksum:              302

Satellite: SO-41
Catalog number: 26545
Epoch time:      04224.90090289
Element set:     848
Inclination:       64.5576 deg
RA of node:       169.9949 deg
Eccentricity:    0.0014305
Arg of perigee:     6.9242 deg
Mean anomaly:     353.2105 deg
Mean motion:   14.79824684 rev/day
Decay rate:       1.97e-06 rev/day^2
Epoch rev:           20915
Checksum:              328

Satellite: MO-46
Catalog number: 26548
Epoch time:      04224.97960729
Element set:     948
Inclination:       64.5564 deg
RA of node:       156.2207 deg
Eccentricity:    0.0014764
Arg of perigee:   342.3385 deg
Mean anomaly:      17.7167 deg
Mean motion:   14.82365821 rev/day
Decay rate:       2.85e-06 rev/day^2
Epoch rev:           20944
Checksum:              333

Satellite: SO-42
Catalog number: 26549
Epoch time:      04225.19887315
Element set:     940
Inclination:       64.5522 deg
RA of node:       176.0302 deg
Eccentricity:    0.0014752
Arg of perigee:    27.8172 deg
Mean anomaly:     332.3718 deg
Mean motion:   14.78719148 rev/day
Decay rate:       2.00e-06 rev/day^2
Epoch rev:           20906
Checksum:              295

Satellite: NO-44
Catalog number: 26931
Epoch time:      04225.66973604
Element set:     830
Inclination:       67.0545 deg
RA of node:       302.3468 deg
Eccentricity:    0.0006284
Arg of perigee:   273.9686 deg
Mean anomaly:      86.0730 deg
Mean motion:   14.29313784 rev/day
Decay rate:        4.7e-07 rev/day^2
Epoch rev:           14967
Checksum:              323

Satellite: AO-49
Catalog number: 27605
Epoch time:      04225.82434726
Element set:     509
Inclination:       64.5593 deg
RA of node:       352.7883 deg
Eccentricity:    0.0080438
Arg of perigee:   300.4101 deg
Mean anomaly:      58.9071 deg
Mean motion:   14.71909016 rev/day
Decay rate:        9.8e-07 rev/day^2
Epoch rev:            8846
Checksum:              318

Satellite: SO-50
Catalog number: 27607
Epoch time:      04224.87808644
Element set:     490
Inclination:       64.5599 deg
RA of node:       359.5616 deg
Eccentricity:    0.0081593
Arg of perigee:   299.7140 deg
Mean anomaly:      59.6109 deg
Mean motion:   14.70691442 rev/day
Decay rate:       1.38e-06 rev/day^2
Epoch rev:            8824
Checksum:              340

Satellite: AO-51
Catalog number: 28375
Epoch time:      04225.63664796
Element set:      40
Inclination:       98.2569 deg
RA of node:       293.7076 deg
Eccentricity:    0.0085298
Arg of perigee:    82.5572 deg
Mean anomaly:     278.5319 deg
Mean motion:   14.40381181 rev/day
Decay rate:        5.1e-07 rev/day^2
Epoch rev:             619
Checksum:              328



Read previous mail | Read next mail


 07.11.2025 19:31:24lGo back Go up